Hourly Weather Roundup
Issued by NWS Central Illinois

Home | Current Version | Previous Version | Text Only | Print | Product List | Glossary On
Versions: 1 2 3 4 5 6 7 8 9 10 11 12 13 14 15 16 17 18 19 20 21 22 23 24 25 26 27 28 29 30 31 32 33 34 35 36 37 38 39 40 41 42 43 44 45 46 47 48 49 50
000
NZUS43 KILX 250210
HWRILX

AREA WEATHER ROUNDUP
NATIONAL WEATHER SERVICE, LINCOLN IL
800 PM CST SAT JAN 24 2015


CITY           SKY/WX    TMP DP  RH WIND       PRES   REMARKS
BLOOMINGTON    MOCLDY    39  35  85 SW9       29.71S WCI  33
CHAMPAIGN      PTCLDY    37  33  85 SW10      29.72F WCI  30
DECATUR        MOCLDY    37  33  85 SW7       29.73F WCI  32
FLORA          CLEAR     36  32  85 S7        29.79S WCI  30
GALESBURG      MOCLDY    37  33  85 S6        29.67S WCI  33
JACKSONVILLE   CLOUDY    45  33  64 S6        29.72F
LACON          CLOUDY    39  33  81 SW3       29.68F
LAWRENCEVILLE  CLEAR     34  31  88 S8        29.79F WCI  27
LITCHFIELD     CLOUDY    36  31  81 S6        29.75S WCI  31
$$


CITY           SKY/WX    TMP DP  RH WIND       PRES   REMARKS
LINCOLN        CLOUDY    38  33  82 S3        29.72F
MACOMB         CLOUDY    40  34  78 SW8       29.70F WCI  35
MATTOON        PTCLDY    38  32  79 S6        29.74F WCI  33
MT CARMEL AP   CLEAR     37  32  81 CALM      29.79F
OLNEY-NOBLE AP PTCLDY    37  32  81 CALM      29.79S
PARIS          CLEAR     35  33  92 SW6       29.75F WCI  30
PEORIA         CLOUDY    39  33  79 S5        29.70S
PONTIAC        MOCLDY    36  34  92 W5        29.70S WCI  32
RANTOUL        PTCLDY    37  35  90 SW10      29.71S WCI  30
ROBINSON       CLEAR     31  30  94 S5        29.79F WCI  27
SPRINGFIELD    CLOUDY    42  33  70 S6        29.73F
TAYLORVILLE    CLOUDY    36  32  87 S7        29.74F WCI  30
$$

...REGIONAL REPORTS...


CITY           SKY/WX    TMP DP  RH WIND       PRES   REMARKS
CHICAGO O`HARE MOCLDY    32  29  88 CALM      29.66F
KANKAKEE       CLEAR     32  31  97 S5        29.70S WCI  27
MOLINE         CLOUDY    37  31  78 CALM      29.65S
MOUNT VERNON   PTCLDY    39  30  70 SW10      29.79F WCI  32
PITTSFIELD     CLOUDY    46  34  62 SW7       29.71F
QUINCY         CLOUDY    44  32  62 SW10      29.68F
ROCKFORD       CLOUDY    30  27  88 SE5       29.68R WCI  25
$$


CITY           SKY/WX    TMP DP  RH WIND       PRES   REMARKS
BURLINGTON     MOCLDY    41  33  73 S7        29.65F
CEDAR RAPIDS   MOCLDY    38  32  79 SE3       29.62F
DES MOINES     CLOUDY    44  29  55 SW7       29.62F
KIRKSVILLE     CLOUDY    48  31  51 SW8       29.67F
OTTUMWA        CLOUDY    41  29  62 S6        29.63F
ST LOUIS       CLOUDY    49  31  49 SW9       29.77R
$$


CITY           SKY/WX    TMP DP  RH WIND       PRES   REMARKS
TERRE HAUTE    CLEAR     37  31  78 SW7       29.77S WCI  32
EVANSVILLE     CLEAR     39  29  67 SW7       29.83S WCI  34
INDIANAPOLIS   PTCLDY    31  28  89 S7        29.75S WCI  24
LAFAYETTE      CLEAR     35  33  92 CALM      29.72F
MADISON        CLOUDY    31  28  89 CALM      29.66R
MILWAUKEE      CLOUDY    35  29  78 W6        29.68R WCI  30
$$




USA.gov is the U.S. government's official web portal to all federal, state and local government web resources and services.